STARLINK-32769, 62602

Orbit data source: Space-Track

STARLINK-32769, 62602 is a payload satellite owned by SpaceX/Seattle (US) in LEO that was launched on Mon, 13 Jan 2025 UTC via an FALCON 9 launch vehicle from the Air Force Eastern Test Range (AFETR). Payload-class satellites include a variety of spacecraft equipped with specific instruments for various scientific and technological missions. These include communications satellites like Starlink; space stations such as the ISS; scientific satellites like the Hubble; Earth observation satellites from companies like Planet Labs, Umbra, and HawkEye 360; GPS; miniature CubeSats for education and research; and military/defense satellites.

Loading next visibility...
Identifier
62602, 2025-008R
Orbit
LEO
Country
Flag of USUS
Related business
Manufacturer
SpaceX/Seattle
Mission
Operational Commercial Communications
Bus & Motor
STARLINK V2M, Unknown motor
Mass
730 kg wet, ~700 kg dry
Launch date (UTC)
2025-01-13 (11 months ago)
Launch vehicle
FALCON 9
Launch site
Air Force Eastern Test Range (AFETR)
Object type
Payload
Rocket body
Debris
Shape & HBR
Box + 2 Pan, 17.7 m
Radar Cross Section
33.884 m², Large (>1 m²)

Expand to show TLE details & history
Last TLE update: 14 hours ago

TLE from 14 hours ago
0 STARLINK-32769
1 62602U 25008R   25351.81364912  .00022250  00000-0  81508-3 0  9997
2 62602  43.0044  20.2146 0002305 273.0544  87.0044 15.27601611 53105
Epoch: 2025-12-17T19:31Z
TLE epoch observation values (Epoch: 2025-12-17T19:31:39.283Z)
Latitude
-0.00004°
Longitude
0.62276°
Altitude
482.678 km
Speed
7.626 km/s
True Right ascension
01h 20m 51s
True Declination
0° 00' 00"
Sunlit
Object was in full shadow at epoch
Visualization orbit readout
Latitude
Unknown
Longitude
Unknown
Altitude
Unknown
Speed
Unknown
Apparent Right ascension
Unknown
Apparent Declination
Unknown
Sunlit
N/A
Visualization observer readout
Local Sidereal Time
08:05:54
Azimuth
Unknown
Elevation
Unknown
Doppler factor
Unknown
Orbital elements
Apogee altitude
486.511 km
Perigee altitude
483.347 km
Semi-major axis
6,863.066 km
Eccentricity
0.00023
Inclination
43.0044°
RAAN
20.2146°
Arg. of periapsis
273.0544°
True anomaly
87.03078°
Mean anomaly
87.0044°
Eccentric anomaly
87.01759°
Mean motion
3.81738 °/min
Orbital period
94.31 mins
BSTAR
0.00081508
Loading maneuver chart data...
Computing Atmospheric mass density...
Loading historical data...
Loading historical data...
Loading historical data...
Loading historical data...
Loading historical data...
Loading historical data...
Loading historical data...

Documentation

Showing up to 5 results
|